Location: Borea
(45.6167°N, 23.0167°E)
Time: 02:03:29
(UTC+00:00)

OPS 8068 - Pass Details

Date: 22 February 2024
Orbit: 631 x 963 km, 98.3° (Epoch: 13 April)

Event Time Altitude Azimuth Distance (km) Brightness Sun altitude
Rises 17:01:17 0° 6° (N) 3,252 ? -10.7°
Reaches altitude 10° 17:03:39 10° 358° (N) 2,371 ? -11.1°
Maximum altitude 17:08:28 37° 292° (WNW) 1,281 ? -12.0°
Drops below altitude 10° 17:13:38 10° 227° (SW) 2,553 ? -12.9°
Sets 17:16:16 0° 220° (SW) 3,532 ? -13.3°
